[[{"header":{"parameterUnit":"m.s-1","parameterCategory":1,"la1":30.2991,"la2":30.254,"lo1":-89.0895,"lo2":-89.0444,"dy":0.0017,"dx":0.0017,"nx":28,"ny":28,"refTime":"2025-01-29T03:00:00:Z","depth":0,"parameterNumber":2,"parameterNumberName":"U-component_of_WINDS"},"data":[0,0,0,0,0,0,0,0,0,0,0,0,0,0,0,0,0,0,0,0,0,0,0,0,0,0,0,0,0,0,0,0,0,0,0,0,0,0,0,0,0,0,0,0,0,0,0,0,0,0,0,0,0,0,0,0,0,0,-0.2661,-0.2661,0,-0.2628,-0.2628,-0.2627,-0.259,-0.2589,-0.2588,-0.2588,-0.2556,-0.2555,-0.2555,0,0,0,0,0,0,0,0,0,0,0,0,0,-0.2694,-0.2693,-0.2661,-0.2661,-0.2661,-0.2628,-0.2628,-0.2627,-0.259,-0.2589,-0.2588,-0.2588,-0.2556,-0.2555,-0.2555,0,0,0,0,0,0,0,0,0,0,0,0,0,-0.2672,-0.2693,-0.2661,-0.2638,-0.2635,-0.2628,-0.2628,-0.2627,-0.259,-0.2589,-0.2588,-0.2587,-0.2556,-0.2555,-0.2555,-0.2569,0,0,-0.2553,-0.2553,0,0,0,0,0,0,0,0,-0.2673,-0.2671,-0.2642,-0.2639,-0.2637,-0.2612,-0.2627,-0.2608,-0.259,-0.2607,-0.2588,-0.2587,-0.2575,-0.2573,-0.2569,-0.2567,-0.2566,-0.2553,-0.2553,-0.2553,-0.2553,0,0,0,0,0,0,0,-0.2675,-0.2672,-0.2648,-0.2641,-0.2638,-0.2629,-0.2625,-0.2623,-0.2596,-0.2606,-0.2603,-0.2599,-0.2574,-0.2569,-0.2568,-0.2566,-0.2553,-0.2553,-0.2553,-0.2552,-0.2573,-0.2574,0,0,0,0,0,0,-0.268,-0.2674,-0.2649,-0.2647,-0.2653,-0.2629,-0.2625,-0.2621,-0.2596,-0.2592,-0.26,-0.2598,-0.2571,-0.2568,-0.2566,-0.2581,-0.2553,-0.2552,-0.2552,-0.2572,-0.2573,-0.2574,0,0,0,0,0,0,-0.2681,-0.2678,-0.2651,-0.266,-0.2655,-0.263,-0.2625,-0.2621,-0.2616,-0.2592,-0.2587,-0.26,-0.257,-0.2567,-0.2568,-0.2579,-0.2552,-0.2552,-0.2571,-0.2572,-0.2573,-0.2609,0,0,0,0,0,0,-0.2682,-0.2678,-0.2683,-0.266,-0.2655,-0.2653,-0.2626,-0.2621,-0.2615,-0.2612,-0.2591,-0.2587,-0.2569,-0.2569,-0.2568,-0.2578,-0.2551,-0.257,-0.2572,-0.2573,-0.2607,-0.2612,-0.2616,0,0,0,0,0,-0.2683,-0.2695,-0.2684,-0.2681,-0.2661,-0.2653,-0.2651,-0.2629,-0.2616,-0.2621,-0.2605,-0.2588,-0.2578,-0.257,-0.2568,-0.2578,-0.2569,-0.2571,-0.2573,-0.2605,-0.2611,-0.2616,0,0,0,0,0,0,-0.2722,-0.2692,-0.2679,-0.2684,-0.2671,-0.2647,-0.2653,-0.2636,-0.2627,-0.2625,-0.2599,-0.2595,-0.2599,-0.2588,-0.2579,-0.2589,-0.2571,-0.2573,-0.2596,-0.2601,-0.2605,-0.2608,-0.2551,0,0,0,0,0,-0.2731,-0.2727,-0.2701,-0.2708,-0.2703,-0.2679,-0.2675,-0.2659,-0.2645,-0.264,-0.2625,-0.2612,-0.2606,-0.2603,-0.2596,-0.2605,-0.26,-0.2611,-0.2615,-0.2619,-0.2621,-0.2624,-0.2629,-0.258,-0.258,-0.258,0,0,-0.275,-0.2733,-0.2732,-0.2716,-0.2704,-0.2701,-0.2675,-0.2673,-0.267,-0.264,-0.264,-0.2628,-0.2613,-0.2617,-0.2619,-0.2609,-0.2633,-0.2621,-0.2624,-0.2624,-0.2626,-0.2631,-0.2635,-0.2581,-0.2581,-0.2581,0,0,-0.2783,-0.277,-0.2774,-0.2762,-0.2745,-0.2728,-0.2729,-0.2707,-0.2698,-0.2697,-0.2674,-0.2671,-0.2661,-0.2651,-0.2644,-0.2672,-0.2655,-0.267,-0.2693,-0.2696,-0.27,-0.2703,-0.2713,-0.2717,-0.2672,-0.2672,-0.2672,0,-0.2809,-0.2803,-0.2778,-0.2777,-0.277,-0.2742,-0.2746,-0.2736,-0.2718,-0.2714,-0.2703,-0.2689,-0.2677,-0.2679,-0.2685,-0.2681,-0.2681,-0.2673,-0.2701,-0.2705,-0.2707,-0.2716,-0.272,-0.2674,-0.2674,-0.2674,-0.2674,0,-0.2835,-0.2831,-0.2837,-0.2818,-0.2812,-0.2814,-0.279,-0.2787,-0.2771,-0.2756,-0.2755,-0.2739,-0.2728,-0.2727,-0.2713,-0.2727,-0.2721,-0.2706,-0.2687,-0.2714,-0.2722,-0.2725,-0.2677,-0.2676,-0.2676,-0.2675,0,0,-0.2893,-0.286,-0.2862,-0.2853,-0.2831,-0.2828,-0.2828,-0.2816,-0.2814,-0.2802,-0.2801,-0.2793,-0.2779,-0.2771,-0.2755,-0.2758,-0.278,-0.2743,-0.2742,-0.275,-0.2794,-0.2806,-0.281,-0.2769,-0.2769,-0.277,-0.2796,0,-0.2922,-0.292,-0.2897,-0.2902,-0.2897,-0.2869,-0.2869,-0.2856,-0.2842,-0.2836,-0.282,-0.2815,-0.2797,-0.2792,-0.2793,-0.2777,-0.2789,-0.2775,-0.2768,-0.2768,-0.2773,-0.2814,-0.2827,-0.2852,-0.2798,-0.2799,-0.2799,0,-0.2956,-0.2945,-0.2948,-0.2925,-0.2922,-0.2923,-0.291,-0.2905,-0.2889,-0.2878,-0.2869,-0.285,-0.2849,-0.283,-0.2828,-0.2819,-0.2815,-0.2806,-0.2807,-0.2806,-0.2786,-0.2814,-0.2859,-0.2863,-0.2804,-0.2804,-0.2803,0,-0.2997,-0.2983,-0.2983,-0.2976,-0.2949,-0.295,-0.2939,-0.2922,-0.2916,-0.2905,-0.29,-0.289,-0.2884,-0.2876,-0.2855,-0.2843,-0.2854,-0.2834,-0.2846,-0.2846,-0.285,-0.285,-0.2895,-0.2847,-0.2847,-0.2847,-0.2847,0,-0.3032,-0.3036,-0.3001,-0.3002,-0.3004,-0.2978,-0.2982,-0.2968,-0.2953,-0.295,-0.2925,-0.2923,-0.2895,-0.2889,-0.2873,-0.2873,-0.2871,-0.2862,-0.2858,-0.2864,-0.2866,-0.2862,-0.2859,-0.2848,-0.2848,-0.2847,-0.2847,0,-0.308,-0.3057,-0.3055,-0.3029,-0.3022,-0.3025,-0.3003,-0.3002,-0.2986,-0.2982,-0.298,-0.2954,-0.2947,-0.2924,-0.2911,-0.29,-0.2905,-0.2897,-0.2911,-0.2908,-0.292,-0.2919,-0.2965,-0.2969,-0.2918,-0.2919,-0.2919,0,-0.3104,-0.3105,-0.3079,-0.3075,-0.3064,-0.3058,-0.3051,-0.3025,-0.302,-0.3001,-0.3002,-0.2992,-0.2983,-0.2972,-0.2953,-0.2942,-0.2934,-0.295,-0.2932,-0.2938,-0.2934,-0.2934,-0.2934,-0.2954,-0.2955,-0.2955,-0.2956,0,-0.3149,-0.3137,-0.3128,-0.3115,-0.3108,-0.3096,-0.3084,-0.3082,-0.3053,-0.3047,-0.3039,-0.3031,-0.3017,-0.3008,-0.2994,-0.2983,-0.2965,-0.2961,-0.2963,-0.2971,-0.2978,-0.2974,-0.2922,-0.2961,-0.296,-0.296,-0.296,-0.2959,-0.3185,-0.3185,-0.3166,-0.3157,-0.3144,-0.3133,-0.313,-0.3113,-0.3105,-0.3091,-0.3076,-0.3069,-0.3052,-0.3031,-0.3021,-0.3015,-0.3006,-0.3009,-0.3009,-0.3011,-0.3014,-0.2979,-0.3013,-0.3012,-0.3012,-0.3012,-0.3012,0,-0.3229,-0.3215,-0.3206,-0.3189,-0.3181,-0.3164,-0.3148,-0.3144,-0.3137,-0.3123,-0.3113,-0.3103,-0.3093,-0.3073,-0.3061,-0.306,-0.3052,-0.3058,-0.3058,-0.3056,-0.3023,-0.3022,-0.3065,-0.3065,-0.3065,-0.3065,-0.3065,-0.3065,-0.3251,-0.3249,-0.3235,-0.3227,-0.3213,-0.3205,-0.3198,-0.3187,-0.3175,-0.3164,-0.3156,-0.3142,-0.3124,-0.3111,-0.3101,-0.3095,-0.3092,-0.3102,-0.3093,-0.3063,-0.3058,-0.3053,-0.3053,-0.3101,-0.3101,-0.3126,-0.3127,-0.3127]},{"header":{"parameterUnit":"m.s-1","parameterCategory":1,"la1":30.2991,"la2":30.254,"lo1":-89.0895,"lo2":-89.0444,"dy":0.0017,"dx":0.0017,"nx":28,"ny":28,"refTime":"2025-01-29T03:00:00:Z","depth":0,"parameterNumber":3,"parameterNumberName":"V-component_of_WINDS"},"data":[0,0,0,0,0,0,0,0,0,0,0,0,0,0,0,0,0,0,0,0,0,0,0,0,0,0,0,0,0,0,0,0,0,0,0,0,0,0,0,0,0,0,0,0,0,0,0,0,0,0,0,0,0,0,0,0,0,0,-0.6477,-0.6477,0,-0.6474,-0.6474,-0.6474,-0.6443,-0.6443,-0.6442,-0.6441,-0.6437,-0.6437,-0.6438,0,0,0,0,0,0,0,0,0,0,0,0,0,-0.6459,-0.646,-0.6477,-0.6477,-0.6477,-0.6474,-0.6474,-0.6473,-0.6443,-0.6443,-0.6442,-0.6441,-0.6437,-0.6437,-0.6438,0,0,0,0,0,0,0,0,0,0,0,0,0,-0.6463,-0.646,-0.6478,-0.6462,-0.6461,-0.6474,-0.6474,-0.6473,-0.6444,-0.6443,-0.6441,-0.644,-0.6436,-0.6437,-0.6438,-0.6466,0,0,-0.6441,-0.6441,0,0,0,0,0,0,0,0,-0.6462,-0.6463,-0.6464,-0.6463,-0.6461,-0.6458,-0.6465,-0.6471,-0.6444,-0.645,-0.6441,-0.644,-0.6445,-0.6445,-0.6446,-0.6465,-0.6465,-0.6441,-0.6441,-0.6442,-0.6442,0,0,0,0,0,0,0,-0.6462,-0.6463,-0.6476,-0.6464,-0.6463,-0.6455,-0.6455,-0.6466,-0.6454,-0.6449,-0.6447,-0.6447,-0.6444,-0.6446,-0.6446,-0.6465,-0.6441,-0.6441,-0.6442,-0.6442,-0.6507,-0.6509,0,0,0,0,0,0,-0.6464,-0.6463,-0.6476,-0.6476,-0.6459,-0.6457,-0.6456,-0.646,-0.6453,-0.6451,-0.6448,-0.6446,-0.6445,-0.6445,-0.6446,-0.6478,-0.6442,-0.6442,-0.6443,-0.6506,-0.6508,-0.6509,0,0,0,0,0,0,-0.6464,-0.6466,-0.6476,-0.6469,-0.647,-0.6458,-0.6463,-0.6461,-0.6463,-0.6452,-0.645,-0.6453,-0.6444,-0.6445,-0.6461,-0.6477,-0.6443,-0.6444,-0.6505,-0.6507,-0.6508,-0.6543,0,0,0,0,0,0,-0.6463,-0.6466,-0.6476,-0.6469,-0.647,-0.6491,-0.6464,-0.6461,-0.6464,-0.6461,-0.6456,-0.6454,-0.6443,-0.646,-0.6462,-0.6478,-0.6444,-0.6503,-0.6506,-0.6508,-0.654,-0.6545,-0.655,0,0,0,0,0,-0.6463,-0.6485,-0.6476,-0.6478,-0.6483,-0.6492,-0.6493,-0.648,-0.6466,-0.6476,-0.647,-0.6454,-0.6476,-0.6462,-0.6464,-0.648,-0.6502,-0.6505,-0.6508,-0.6538,-0.6544,-0.655,0,0,0,0,0,0,-0.6493,-0.6484,-0.6474,-0.6495,-0.6495,-0.6487,-0.65,-0.6487,-0.6491,-0.6488,-0.6472,-0.6471,-0.649,-0.6487,-0.6472,-0.6507,-0.6486,-0.649,-0.6508,-0.6515,-0.652,-0.652,-0.6445,0,0,0,0,0,-0.6502,-0.6511,-0.6503,-0.6522,-0.6522,-0.6511,-0.6515,-0.6505,-0.6504,-0.6504,-0.6499,-0.6498,-0.6505,-0.651,-0.6515,-0.654,-0.6538,-0.6552,-0.6557,-0.6561,-0.6564,-0.6578,-0.6584,-0.6518,-0.6518,-0.6518,0,0,-0.6521,-0.6517,-0.6524,-0.6528,-0.6527,-0.6536,-0.6511,-0.6522,-0.6529,-0.6506,-0.6521,-0.6517,-0.6516,-0.6537,-0.6546,-0.6535,-0.6582,-0.6565,-0.6568,-0.6569,-0.6581,-0.6587,-0.6593,-0.652,-0.6519,-0.6519,0,0,-0.656,-0.6558,-0.6574,-0.6574,-0.6573,-0.6565,-0.6569,-0.6564,-0.6561,-0.6576,-0.6559,-0.6567,-0.6579,-0.6579,-0.658,-0.6622,-0.6608,-0.6624,-0.665,-0.6663,-0.6668,-0.6673,-0.6688,-0.6693,-0.6627,-0.6627,-0.6627,0,-0.6584,-0.6597,-0.6584,-0.6597,-0.6599,-0.6579,-0.6596,-0.6596,-0.6596,-0.6599,-0.6587,-0.6602,-0.6599,-0.662,-0.663,-0.6632,-0.6637,-0.6624,-0.6669,-0.6673,-0.6677,-0.6691,-0.6697,-0.6629,-0.6629,-0.6629,-0.6628,0,-0.6627,-0.6637,-0.665,-0.6652,-0.6656,-0.667,-0.6659,-0.6665,-0.6656,-0.665,-0.6667,-0.6663,-0.6668,-0.6672,-0.6663,-0.6692,-0.6686,-0.6672,-0.665,-0.6686,-0.6699,-0.6704,-0.6632,-0.6631,-0.6631,-0.663,0,0,-0.6683,-0.6679,-0.6684,-0.6685,-0.6683,-0.669,-0.6704,-0.6709,-0.6715,-0.6717,-0.6728,-0.6739,-0.6727,-0.6728,-0.6719,-0.673,-0.6764,-0.6715,-0.6715,-0.6724,-0.6797,-0.6807,-0.6814,-0.6755,-0.6756,-0.6757,-0.6797,0,-0.6721,-0.6744,-0.6734,-0.6759,-0.6768,-0.675,-0.6762,-0.6763,-0.6758,-0.6765,-0.676,-0.6768,-0.6751,-0.6752,-0.6763,-0.6758,-0.6778,-0.6755,-0.6766,-0.6766,-0.6766,-0.682,-0.6831,-0.6869,-0.6802,-0.6803,-0.6803,0,-0.6767,-0.6772,-0.6798,-0.6795,-0.6799,-0.681,-0.6815,-0.6822,-0.6823,-0.6818,-0.6821,-0.681,-0.6823,-0.6803,-0.6822,-0.6806,-0.681,-0.6808,-0.681,-0.681,-0.6787,-0.6822,-0.6881,-0.6887,-0.6811,-0.6811,-0.681,0,-0.6806,-0.6819,-0.6836,-0.6838,-0.6835,-0.6844,-0.6843,-0.6842,-0.6846,-0.6851,-0.6853,-0.6859,-0.6862,-0.6867,-0.6857,-0.6843,-0.6878,-0.6856,-0.6875,-0.6875,-0.6882,-0.6882,-0.6943,-0.6886,-0.6885,-0.6885,-0.6885,0,-0.6849,-0.6866,-0.6854,-0.6865,-0.6883,-0.6871,-0.689,-0.6887,-0.6887,-0.6897,-0.6882,-0.6891,-0.6878,-0.6887,-0.6879,-0.6896,-0.6898,-0.6895,-0.6893,-0.6896,-0.6897,-0.6898,-0.6895,-0.6887,-0.6887,-0.6886,-0.6886,0,-0.6896,-0.6888,-0.6906,-0.6903,-0.6902,-0.6916,-0.6913,-0.6923,-0.6918,-0.6931,-0.6933,-0.6925,-0.6935,-0.6926,-0.6934,-0.693,-0.6953,-0.6947,-0.6953,-0.6951,-0.6971,-0.6969,-0.7034,-0.7043,-0.698,-0.6981,-0.6981,0,-0.6923,-0.6936,-0.6934,-0.694,-0.6941,-0.695,-0.6955,-0.6944,-0.695,-0.6952,-0.6962,-0.697,-0.6976,-0.6992,-0.6987,-0.6994,-0.6988,-0.7011,-0.6989,-0.6992,-0.6989,-0.6988,-0.6989,-0.7015,-0.7016,-0.7016,-0.7017,0,-0.6973,-0.697,-0.6977,-0.6984,-0.699,-0.6995,-0.6998,-0.7004,-0.6993,-0.7,-0.701,-0.7015,-0.7024,-0.7033,-0.7039,-0.7038,-0.7026,-0.7024,-0.7029,-0.7032,-0.7035,-0.7034,-0.6965,-0.7022,-0.7022,-0.7021,-0.7021,-0.7021,-0.7011,-0.7022,-0.7023,-0.7032,-0.7034,-0.7038,-0.7048,-0.7044,-0.7053,-0.706,-0.7053,-0.7065,-0.7066,-0.7073,-0.7074,-0.7083,-0.7074,-0.708,-0.7082,-0.7084,-0.7087,-0.7034,-0.7084,-0.7084,-0.7084,-0.7084,-0.7083,0,-0.7061,-0.7061,-0.707,-0.7076,-0.7083,-0.7072,-0.7076,-0.7083,-0.7094,-0.7096,-0.7103,-0.7115,-0.7123,-0.712,-0.7127,-0.7136,-0.713,-0.7138,-0.7137,-0.7137,-0.7095,-0.709,-0.7142,-0.7142,-0.7142,-0.7142,-0.7142,-0.7142,-0.7087,-0.7105,-0.7102,-0.7121,-0.7121,-0.7133,-0.7137,-0.714,-0.7142,-0.7157,-0.7164,-0.7162,-0.7162,-0.717,-0.7177,-0.7176,-0.718,-0.7189,-0.7186,-0.7146,-0.714,-0.7135,-0.713,-0.719,-0.719,-0.7228,-0.7228,-0.7229]}]]